Location: Newark
(28.1667°N, 17.3333°W)
Time: 08:47:43
(UTC+00:00)

Tiangong 2 - Visible Passes

Search period start: 19 May 2019 00:00
Search period end: 29 May 2019 00:00
Orbit: 378 x 387 km, 42.8° (Epoch: 19 May)

Date Brightness Start Highest point End Pass type
(mag) Time Alt. Az. Time Alt. Az. Time Alt. Az.
19 May 2.7 05:24:37 17° SW 05:24:37 17° SW 05:26:40 10° S visible
19 May 3.8 21:52:25 10° WNW 21:54:46 19° NNW 21:56:34 13° NNE visible
20 May 2.8 20:51:44 10° W 20:54:38 35° NNW 20:57:32 10° NE visible
21 May 4.2 21:30:11 10° NW 21:31:38 13° NNW 21:33:05 10° N visible
22 May 3.8 20:28:59 10° WNW 20:31:23 20° NNW 20:33:46 10° NNE visible
28 May 4.3 22:35:08 10° NNW 22:35:40 13° NNW 22:35:40 13° NNW visible
